• In Russia
  • List of Countries
  • For 7 days
  • Water Temperature
  • Satellite Maps
  • Weather Map
  • Weather Widgets
  • user-avatar
    Login

    Hourly Weather Bludenz

    Today, 18 July, Thursday

    Time Temperature Precipitation Wind Pressure Humidity
    00:00 +15°C° 0 mm 1 mps 699 mmHg 86%
    01:00 +15°C° 0 mm 1 mps 699 mmHg 84%
    02:00 +15°C° 0 mm 1 mps 699 mmHg 83%
    03:00 +15°C° 0 mm 1 mps 699 mmHg 83%
    04:00 +15°C° 0 mm 1 mps 699 mmHg 82%
    05:00 +16°C° 0 mm 1 mps 699 mmHg 80%
    06:00 +18°C° 0 mm 1 mps 699 mmHg 78%
    07:00 +20°C° 0 mm 1 mps 700 mmHg 72%
    08:00 +21°C° 0.1 mm 1 mps 700 mmHg 67%
    09:00 +22°C° 0.1 mm 1 mps 701 mmHg 63%
    10:00 +23°C° 0.1 mm 1 mps 701 mmHg 58%
    11:00 +24°C° 0.2 mm 2 mps 701 mmHg 55%
    12:00 +24°C° 0.2 mm 2 mps 701 mmHg 52%
    13:00 +25°C° 0.2 mm 3 mps 701 mmHg 49%
    14:00 +25°C° 0.2 mm 2 mps 701 mmHg 50%
    15:00 +24°C° 0.2 mm 2 mps 701 mmHg 52%
    16:00 +24°C° 0.2 mm 2 mps 701 mmHg 53%
    17:00 +23°C° 0.1 mm 2 mps 701 mmHg 60%
    18:00 +22°C° 0.1 mm 1 mps 701 mmHg 67%
    19:00 +21°C° 0.1 mm 1 mps 701 mmHg 74%
    20:00 +20°C° 0 mm 1 mps 701 mmHg 76%
    21:00 +18°C° 0 mm 1 mps 701 mmHg 79%
    22:00 +16°C° 0 mm 1 mps 701 mmHg 82%
    23:00 +15°C° 0 mm 1 mps 701 mmHg 81%

    Tomorrow, 19 July, Friday

    Time Temperature Precipitation Wind Pressure Humidity
    00:00 +15°C° 0 mm 1 mps 701 mmHg 80%
    01:00 +15°C° 0 mm 1 mps 701 mmHg 79%
    02:00 +15°C° 0 mm 1 mps 701 mmHg 80%
    03:00 +15°C° 0 mm 1 mps 701 mmHg 80%
    04:00 +15°C° 0 mm 1 mps 701 mmHg 80%
    05:00 +16°C° 0 mm 1 mps 702 mmHg 76%
    06:00 +17°C° 0 mm 0 mps 702 mmHg 73%
    07:00 +18°C° 0 mm 0 mps 703 mmHg 69%
    08:00 +20°C° 0 mm 0 mps 703 mmHg 63%
    09:00 +24°C° 0 mm 1 mps 703 mmHg 57%
    10:00 +25°C° 0 mm 1 mps 703 mmHg 51%
    11:00 +26°C° 0 mm 1 mps 703 mmHg 49%
    12:00 +27°C° 0 mm 1 mps 703 mmHg 48%
    13:00 +28°C° 0 mm 2 mps 703 mmHg 46%
    14:00 +27°C° 0.2 mm 2 mps 703 mmHg 51%
    15:00 +27°C° 0.2 mm 2 mps 703 mmHg 57%
    16:00 +26°C° 0.2 mm 2 mps 702 mmHg 62%
    17:00 +25°C° 0.6 mm 2 mps 703 mmHg 69%
    18:00 +24°C° 0.6 mm 1 mps 703 mmHg 76%
    19:00 +23°C° 0.6 mm 1 mps 703 mmHg 83%
    20:00 +21°C° 0.1 mm 1 mps 703 mmHg 85%
    21:00 +20°C° 0.1 mm 1 mps 703 mmHg 88%
    22:00 +18°C° 0.1 mm 1 mps 703 mmHg 91%
    23:00 +18°C° 0 mm 1 mps 703 mmHg 90%

    Day after tomorrow, 20 July, Saturday

    Time Temperature Precipitation Wind Pressure Humidity
    00:00 +18°C° 0 mm 1 mps 703 mmHg 90%
    01:00 +17°C° 0 mm 2 mps 703 mmHg 89%
    02:00 +17°C° 0 mm 2 mps 703 mmHg 89%
    03:00 +16°C° 0 mm 2 mps 703 mmHg 88%
    04:00 +16°C° 0 mm 2 mps 703 mmHg 87%
    05:00 +18°C° 0 mm 2 mps 703 mmHg 84%
    06:00 +19°C° 0 mm 2 mps 703 mmHg 81%
    07:00 +21°C° 0 mm 2 mps 703 mmHg 78%
    08:00 +24°C° 0 mm 2 mps 704 mmHg 69%
    09:00 +26°C° 0 mm 1 mps 704 mmHg 60%
    10:00 +28°C° 0 mm 1 mps 704 mmHg 51%
    11:00 +28°C° 0.1 mm 1 mps 704 mmHg 49%
    12:00 +29°C° 0.1 mm 1 mps 704 mmHg 48%
    13:00 +29°C° 0.1 mm 1 mps 704 mmHg 47%
    14:00 +29°C° 0.7 mm 1 mps 704 mmHg 50%
    15:00 +29°C° 0.7 mm 1 mps 704 mmHg 54%
    16:00 +28°C° 0.7 mm 1 mps 704 mmHg 57%
    17:00 +27°C° 1.4 mm 1 mps 704 mmHg 64%
    18:00 +26°C° 1.4 mm 1 mps 704 mmHg 72%
    19:00 +23°C° 1.4 mm 0 mps 704 mmHg 79%
    20:00 +23°C° 0.2 mm 1 mps 704 mmHg 81%
    21:00 +21°C° 0.2 mm 1 mps 704 mmHg 83%
    22:00 +20°C° 0.2 mm 1 mps 705 mmHg 85%
    23:00 +20°C° 0 mm 1 mps 705 mmHg 84%

    21 July, Sunday

    Time Temperature Precipitation Wind Pressure Humidity
    00:00 +19°C° 0 mm 2 mps 705 mmHg 83%
    01:00 +19°C° 0 mm 2 mps 705 mmHg 82%
    02:00 +19°C° 0 mm 2 mps 705 mmHg 81%
    03:00 +19°C° 0 mm 2 mps 705 mmHg 81%
    04:00 +19°C° 0 mm 1 mps 705 mmHg 80%
    05:00 +21°C° 0.1 mm 1 mps 705 mmHg 79%
    06:00 +22°C° 0.1 mm 1 mps 706 mmHg 77%
    07:00 +21°C° 0.1 mm 0 mps 706 mmHg 76%
    08:00 +24°C° 0.2 mm 1 mps 707 mmHg 71%
    09:00 +26°C° 0.2 mm 1 mps 707 mmHg 67%
    10:00 +27°C° 0.2 mm 1 mps 707 mmHg 62%
    11:00 +28°C° 0.2 mm 2 mps 707 mmHg 59%
    12:00 +29°C° 0.2 mm 2 mps 707 mmHg 56%
    13:00 +29°C° 0.2 mm 2 mps 707 mmHg 52%
    14:00 +29°C° 0.2 mm 2 mps 707 mmHg 54%
    15:00 +29°C° 0.2 mm 2 mps 707 mmHg 57%
    16:00 +28°C° 0.2 mm 2 mps 707 mmHg 59%
    17:00 +27°C° 0.1 mm 1 mps 707 mmHg 66%
    18:00 +26°C° 0.1 mm 1 mps 707 mmHg 73%
    19:00 +25°C° 0.1 mm 1 mps 707 mmHg 79%
    20:00 +23°C° 0 mm 1 mps 707 mmHg 82%
    21:00 +22°C° 0 mm 1 mps 707 mmHg 85%
    22:00 +20°C° 0 mm 1 mps 708 mmHg 87%
    23:00 +20°C° 0 mm 1 mps 708 mmHg 87%

    22 July, Monday

    Time Temperature Precipitation Wind Pressure Humidity
    00:00 +20°C° 0 mm 1 mps 707 mmHg 86%
    01:00 +20°C° 0 mm 1 mps 707 mmHg 86%
    02:00 +19°C° 0 mm 1 mps 707 mmHg 85%
    03:00 +19°C° 0 mm 1 mps 707 mmHg 83%
    04:00 +19°C° 0 mm 1 mps 707 mmHg 82%
    05:00 +21°C° 0 mm 1 mps 708 mmHg 76%
    06:00 +23°C° 0 mm 1 mps 708 mmHg 71%
    07:00 +25°C° 0 mm 1 mps 709 mmHg 65%
    08:00 +27°C° 0 mm 1 mps 709 mmHg 60%
    09:00 +28°C° 0 mm 1 mps 709 mmHg 55%
    10:00 +30°C° 0 mm 1 mps 709 mmHg 49%
    11:00 +31°C° 0 mm 1 mps 709 mmHg 47%
    12:00 +31°C° 0 mm 1 mps 709 mmHg 44%
    13:00 +32°C° 0 mm 2 mps 709 mmHg 41%
    14:00 +32°C° 0 mm 2 mps 708 mmHg 43%
    15:00 +32°C° 0 mm 2 mps 708 mmHg 44%
    16:00 +33°C° 0 mm 3 mps 708 mmHg 45%
    17:00 +30°C° 0.1 mm 2 mps 708 mmHg 57%
    18:00 +28°C° 0.1 mm 2 mps 708 mmHg 69%
    19:00 +27°C° 0.1 mm 1 mps 708 mmHg 81%
    20:00 +25°C° 0 mm 1 mps 707 mmHg 84%
    21:00 +23°C° 0 mm 1 mps 707 mmHg 87%
    22:00 +21°C° 0 mm 1 mps 707 mmHg 91%
    23:00 +21°C° 0 mm 1 mps 707 mmHg 90%

    23 July, Tuesday

    Time Temperature Precipitation Wind Pressure Humidity
    00:00 +21°C° 0 mm 1 mps 707 mmHg 89%
    01:00 +21°C° 0 mm 1 mps 707 mmHg 88%
    02:00 +20°C° 0 mm 1 mps 707 mmHg 88%
    03:00 +20°C° 0 mm 1 mps 706 mmHg 87%
    04:00 +20°C° 0 mm 1 mps 706 mmHg 86%
    05:00 +22°C° 0 mm 1 mps 706 mmHg 81%
    06:00 +23°C° 0 mm 1 mps 707 mmHg 76%
    07:00 +25°C° 0 mm 1 mps 707 mmHg 71%
    08:00 +27°C° 0 mm 1 mps 707 mmHg 61%
    09:00 +29°C° 0 mm 1 mps 707 mmHg 52%
    10:00 +31°C° 0 mm 1 mps 707 mmHg 42%
    11:00 +32°C° 0 mm 1 mps 707 mmHg 39%
    12:00 +33°C° 0 mm 1 mps 707 mmHg 36%
    13:00 +34°C° 0 mm 2 mps 707 mmHg 34%
    14:00 +34°C° 0 mm 2 mps 706 mmHg 35%
    15:00 +34°C° 0 mm 2 mps 706 mmHg 37%
    16:00 +34°C° 0 mm 2 mps 705 mmHg 39%
    17:00 +31°C° 0 mm 2 mps 705 mmHg 50%
    18:00 +30°C° 0 mm 1 mps 705 mmHg 61%
    19:00 +28°C° 0 mm 1 mps 705 mmHg 72%
    20:00 +26°C° 0 mm 1 mps 705 mmHg 75%
    21:00 +24°C° 0 mm 1 mps 704 mmHg 79%
    22:00 +23°C° 0 mm 1 mps 704 mmHg 82%
    23:00 +22°C° 0 mm 1 mps 704 mmHg 81%
    Show more